{"data":{"norad_id":57954,"intl_designator":"2023-148V","name":"STARLINK-30703","alt_names":[],"object_type":"PAYLOAD","status":"ACTIVE","operator":null,"country":"US","launch_date":"2023-09-25","launch_site_code":"AFWTR","launch_vehicle":null,"mission":null,"orbit_class":"UNKNOWN","rcs_meters":null,"size_class":null,"mass_kg":null,"dimensions":null,"purposes":["comms"],"wikipedia_slug":null,"has_3d_model":false,"image_url":null,"decayed_at":null,"tle_current":{"epoch":"2026-09-20T07:18:00.234432Z","epoch_age_seconds":154617,"freshness":"FRESH","line1":"1 57954U 23148V   26263.30416938  .00001181  00000+0  46097-4 0  9991","line2":"2 57954  53.1596 186.3546 0002094  41.8728 318.2435 15.34394452168415","mean_motion":15.34394452,"eccentricity":0.0002094,"inclination_deg":53.1596,"raan_deg":186.3546,"arg_perigee_deg":41.8728,"mean_anomaly_deg":318.2435,"bstar":4.6097e-5,"rev_number":16841,"period_min":93.848097412177,"perigee_km":461.2872546827,"apogee_km":464.15220548126,"semimajor_km":6840.856730082,"source":"CELESTRAK","updated_at":"2026-09-21T09:00:33.748094Z"}}}